Location: Devore Heights
(34.2372°N, 117.4156°W)
Time: 16:39:23
(UTC+00:00)

Tiros 1 despin weight - Pass Details

Date: 15 September 2024
Orbit: 573 x 615 km, 48.2° (Epoch: 04 October)

Event Time Altitude Azimuth Distance (km) Brightness Sun altitude
Exits shadow 11:50:18 23° 324° (NW) 1,313 ? -21.6°
Maximum altitude 11:50:57 24° 338° (NNW) 1,287 ? -21.5°
Drops below altitude 10° 11:54:40 10° 32° (NNE) 1,984 ? -20.8°
Sets 11:57:22 0° 47° (NE) 2,891 ? -20.2°
